STARLINK-30571, 58066

Orbit data source: Space-Track

STARLINK-30571, 58066 is a payload satellite owned by SpaceX/Seattle (US) in LEO that was launched on Fri, 13 Oct 2023 UTC via an FALCON 9 launch vehicle from the Air Force Eastern Test Range (AFETR). Payload-class satellites include a variety of spacecraft equipped with specific instruments for various scientific and technological missions. These include communications satellites like Starlink; space stations such as the ISS; scientific satellites like the Hubble; Earth observation satellites from companies like Planet Labs, Umbra, and HawkEye 360; GPS; miniature CubeSats for education and research; and military/defense satellites.

Loading next visibility...
Identifier
58066, 2023-158R
Orbit
LEO
Country
Flag of USUS
Related business
Manufacturer
SpaceX/Seattle
Mission
Operational Commercial Communications
Bus & Motor
STARLINK V2M, Unknown motor
Mass
730 kg wet, ~700 kg dry
Launch date (UTC)
2023-10-13 (3 years ago)
Launch vehicle
FALCON 9
Launch site
Air Force Eastern Test Range (AFETR)
Object type
Payload
Rocket body
Debris
Shape & HBR
Box + 2 Pan, 17.7 m
Radar Cross Section
33.884 m², Large (>1 m²)

Expand to show TLE details & history
Last TLE update: 2 days ago

TLE from 2 days ago
0 STARLINK-30571
1 58066U 23158R   26171.05910546  .00000721  00000-0  35729-4 0  9991
2 58066  43.0051 169.1265 0002279 284.7728  75.2871 15.27576677149229
Epoch: 2026-06-20T01:25Z
TLE epoch observation values (Epoch: 2026-06-20T01:25:06.711Z)
Latitude
-0.00004°
Longitude
-120.43067°
Altitude
482.438 km
Speed
7.626 km/s
True Right ascension
11h 16m 30s
True Declination
0° 00' 00"
Sunlit
Object was in daylight at epoch
Visualization orbit readout
Latitude
Unknown
Longitude
Unknown
Altitude
Unknown
Speed
Unknown
Apparent Right ascension
Unknown
Apparent Declination
Unknown
Sunlit
N/A
Visualization observer readout
Local Sidereal Time
21:33:21
Azimuth
Unknown
Elevation
Unknown
Doppler factor
Unknown
Orbital elements
Apogee altitude
486.567 km
Perigee altitude
483.439 km
Semi-major axis
6,863.14 km
Eccentricity
0.00023
Inclination
43.0051°
RAAN
169.1265°
Arg. of periapsis
284.7728°
True anomaly
75.31236°
Mean anomaly
75.2871°
Eccentric anomaly
75.29973°
Mean motion
3.81732 °/min
Orbital period
94.31 mins
BSTAR
0.000035729
Loading maneuver chart data...
Computing Atmospheric mass density...
Loading historical data...
Loading historical data...
Loading historical data...
Loading historical data...
Loading historical data...
Loading historical data...
Loading historical data...

Documentation

Showing up to 5 results
|